CINOVEC Weather Reports


Display with metric or nautical units.
time (UTC)temp
F
wind
direction
speed
MPH
gust
MPH
rain 1hr
in
rain 24hr
in
rain mn
in
humidity
%
barometer
mb
20260903231730 57 240 10.0 18.0 0.00 0.00 0.00 87
20260903222131 55 240 8.0 16.0 0.00 0.00 0.00 93
20260903211731 57 240 12.0 22.0 0.00 0.00 0.00 87
20260903201731 55 240 13.0 24.0 0.00 0.00 0.00 93
20260903191930 55 230 14.0 25.0 0.00 0.00 0.00 93
20260903181731 55 240 17.0 28.0 0.00 0.00 0.00 93
20260903171745 57 240 16.0 28.0 0.00 0.00 0.00 82
20260903162046 59 240 17.0 26.0 0.00 0.00 0.00 77
20260903151730 61 220 12.0 18.0 0.00 0.00 0.00 72
20260903141730 63 210 14.0 0.0 0.00 0.00 0.00 67
20260903131931 64 210 14.0 22.0 0.00 0.00 0.00 63
20260903121730 63 220 12.0 0.0 0.00 0.00 0.00 59
20260903111728 61 210 16.0 23.0 0.00 0.00 0.00 59
20260903102130 61 220 13.0 0.0 0.00 0.00 0.00 59
20260903091729 59 220 12.0 0.0 0.00 0.00 0.00 67
20260903081727 57 220 12.0 0.0 0.00 0.00 0.00 71
20260903071929 57 210 9.0 0.0 0.00 0.00 0.00 76
20260903061728 54 210 7.0 0.0 0.00 0.00 0.00 81
20260903051729 50 230 5.0 0.0 0.00 0.00 0.00 99
20260903042130 52 240 5.0 0.0 0.00 0.00 0.00 93
20260903031729 52 260 5.0 0.0 0.00 0.00 0.00 93
20260903021727 52 260 6.0 0.0 0.00 0.00 0.00 93
20260903011928 52 270 6.0 0.0 0.00 0.00 0.00 93
20260903001729 54 270 7.0 0.0 0.00 0.00 0.00 87